Weather History for Puyallup, WA

Change the Weather History Date:

Saturday, April 14, 2012

  Actual Average (KTCM) Record (KTCM)
Temperature  
Mean Temperature 47 °F -  
Max Temperature 62 °F 55 °F 78 °F (1984)
Min Temperature 32 °F 37 °F 28 °F (1999)
Degree Days  
Heating Degree Days 18    
Moisture  
Dew Point 39 °F    
Average Humidity 76    
Maximum Humidity 100    
Minimum Humidity 45    
Precipitation  
Precipitation 0.00 in - - ()
Sea Level Pressure  
Sea Level Pressure 30.05 in    
Wind  
Wind Speed 2 mph (WSW)    
Max Wind Speed 9 mph    
Max Gust Speed -    
Visibility 10 miles    
Events      
Averages and records for this station are not official NWS values.
T = Trace of Precipitation, MM = Missing Value Source: NWS Daily Summary

Daily Weather History Graph

Daily Weather History Graph

Search for Another Location

Airport:

Trip Planner

Search our weather history database for the weather conditions in past years. The results will help you decide how hot, cold, wet, or windy it might be!

Date:

Astronomy

Apr. 14, 2012 Rise Set
Actual Time 6:21 AM PDT 7:57 PM PDT
Civil Twilight 5:50 AM PDT 8:29 PM PDT
Nautical Twilight 5:11 AM PDT 9:08 PM PDT
Astronomical Twilight 4:29 AM PDT 9:50 PM PDT
Moon 3:13 AM PDT (4/14) 1:33 PM PDT (4/14)
Length of Visible Light 14h 39m
Length of Day
13h 35m
Last Quarter, 36% of the Moon is Illuminated
Apr 14
Last Quarter
Apr 21
New
Apr 29
First Quarter
May 5
Full
May 12
Last Quarter

Hourly Weather History & Observations

Time (PDT) Temp. Windchill Dew Point Humidity Pressure Visibility Wind Dir Wind Speed Gust Speed Precip Events Conditions
12:15 AM 37.4 °F - 37.4 °F 100% 29.92 in 10.0 mi Calm Calm - N/A   Clear
12:35 AM 37.4 °F - 37.4 °F 100% 29.93 in 10.0 mi Calm Calm - N/A   Clear
12:55 AM 37.4 °F - 37.4 °F 100% 29.93 in 10.0 mi Calm Calm - N/A   Clear
1:15 AM 35.6 °F - 35.6 °F 100% 29.93 in 9.0 mi Calm Calm - N/A   Clear
1:35 AM 35.6 °F - 35.6 °F 100% 29.94 in 10.0 mi Calm Calm - N/A   Clear
1:55 AM 35.6 °F - 35.6 °F 100% 29.94 in 10.0 mi Calm Calm - N/A   Clear
2:15 AM 35.6 °F - 35.6 °F 100% 29.95 in 10.0 mi Calm Calm - N/A   Clear
2:35 AM 35.6 °F - 35.6 °F 100% 29.95 in 10.0 mi Calm Calm - N/A   Clear
3:15 AM 33.8 °F - 33.8 °F 100% 29.96 in 10.0 mi Calm Calm - N/A   Clear
3:35 AM 33.8 °F - 33.8 °F 100% 29.97 in 10.0 mi Calm Calm - N/A   Clear
3:55 AM 33.8 °F - 33.8 °F 100% 29.98 in 9.0 mi Calm Calm - N/A   Clear
4:15 AM 35.6 °F - 35.6 °F 100% 29.98 in 10.0 mi Calm Calm - N/A   Clear
4:35 AM 33.8 °F - 33.8 °F 100% 29.98 in 9.0 mi Calm Calm - N/A   Clear
4:55 AM 33.8 °F - 33.8 °F 100% 29.99 in 7.0 mi Calm Calm - N/A   Clear
5:15 AM 33.8 °F - 33.8 °F 100% 29.98 in 10.0 mi Calm Calm - N/A   Clear
5:35 AM 32.0 °F - 32.0 °F 100% 29.99 in 2.0 mi Calm Calm - N/A   Clear
5:55 AM 33.8 °F - 33.8 °F 100% 29.99 in 6.0 mi Calm Calm - N/A   Clear
6:15 AM 32.0 °F - 32.0 °F 100% 29.99 in 10.0 mi Calm Calm - N/A   Clear
6:35 AM 32.0 °F - 32.0 °F 100% 30.00 in 6.0 mi Calm Calm - N/A   Clear
6:55 AM 33.8 °F - 33.8 °F 100% 30.01 in 8.0 mi Calm Calm - N/A   Clear
7:15 AM 33.8 °F - 33.8 °F 100% 30.02 in 10.0 mi Calm Calm - N/A   Clear
7:35 AM 35.6 °F - 35.6 °F 100% 30.02 in 10.0 mi Calm Calm - N/A   Clear
7:55 AM 39.2 °F - 39.2 °F 100% 30.02 in 10.0 mi Calm Calm - N/A   Clear
8:15 AM 42.8 °F - 39.2 °F 87% 30.02 in 10.0 mi Calm Calm - N/A   Clear
8:35 AM 46.4 °F - 39.2 °F 76% 30.03 in 10.0 mi Calm Calm - N/A   Clear
8:55 AM 48.2 °F - 39.2 °F 71% 30.04 in 10.0 mi Calm Calm - N/A   Clear
9:15 AM 48.2 °F - 41.0 °F 76% 30.04 in 10.0 mi Calm Calm - N/A   Clear
9:35 AM 48.2 °F - 41.0 °F 76% 30.05 in 10.0 mi WNW 5.8 mph - N/A   Clear
9:55 AM 48.2 °F - 42.8 °F 82% 30.07 in 10.0 mi West 9.2 mph - N/A   Clear
10:15 AM 51.8 °F - 42.8 °F 71% 30.07 in 10.0 mi West 4.6 mph - N/A   Clear
10:35 AM 51.8 °F - 42.8 °F 71% 30.07 in 10.0 mi SW 4.6 mph - N/A   Clear
10:55 AM 53.6 °F - 42.8 °F 67% 30.07 in 10.0 mi WSW 5.8 mph - N/A   Clear
11:15 AM 53.6 °F - 42.8 °F 67% 30.07 in 10.0 mi WSW 5.8 mph - N/A   Clear
11:35 AM 55.4 °F - 44.6 °F 67% 30.07 in 10.0 mi West 4.6 mph - N/A   Partly Cloudy
11:55 AM 55.4 °F - 42.8 °F 63% 30.07 in 10.0 mi WSW 6.9 mph - N/A   Clear
12:15 PM 55.4 °F - 44.6 °F 67% 30.07 in 10.0 mi SW 6.9 mph - N/A   Partly Cloudy
12:35 PM 55.4 °F - 44.6 °F 67% 30.07 in 10.0 mi SW 5.8 mph - N/A   Clear
12:55 PM 55.4 °F - 42.8 °F 63% 30.07 in 10.0 mi WSW 8.1 mph - N/A   Clear
1:15 PM 57.2 °F - 44.6 °F 63% 30.08 in 10.0 mi WSW 5.8 mph - N/A   Scattered Clouds
1:35 PM 57.2 °F - 42.8 °F 59% 30.08 in 10.0 mi West 8.1 mph - N/A   Scattered Clouds
1:55 PM 57.2 °F - 42.8 °F 59% 30.08 in 10.0 mi Calm Calm - N/A   Scattered Clouds
2:15 PM 57.2 °F - 42.8 °F 59% 30.09 in 10.0 mi SW 9.2 mph - N/A   Scattered Clouds
2:35 PM 57.2 °F - 42.8 °F 59% 30.08 in 10.0 mi Calm Calm - N/A   Mostly Cloudy
2:55 PM 59.0 °F - 42.8 °F 55% 30.07 in 10.0 mi SSW 4.6 mph - N/A   Mostly Cloudy
3:15 PM 59.0 °F - 42.8 °F 55% 30.08 in 10.0 mi WSW 9.2 mph - N/A   Mostly Cloudy
3:35 PM 57.2 °F - 41.0 °F 55% 30.07 in 10.0 mi NW 3.5 mph - N/A   Scattered Clouds
3:55 PM 60.8 °F - 41.0 °F 48% 30.07 in 10.0 mi WSW 9.2 mph - N/A   Mostly Cloudy
4:15 PM 60.8 °F - 41.0 °F 48% 30.07 in 10.0 mi NW 3.5 mph - N/A   Mostly Cloudy
4:35 PM 62.6 °F - 41.0 °F 45% 30.07 in 10.0 mi WNW 6.9 mph - N/A   Mostly Cloudy
4:55 PM 60.8 °F - 42.8 °F 52% 30.08 in 10.0 mi WNW 3.5 mph - N/A   Partly Cloudy
5:15 PM 57.2 °F - 41.0 °F 55% 30.08 in 10.0 mi WNW 4.6 mph - N/A   Partly Cloudy
5:35 PM 60.8 °F - 41.0 °F 48% 30.08 in 10.0 mi WSW 9.2 mph - N/A   Scattered Clouds
5:55 PM 59.0 °F - 42.8 °F 55% 30.08 in 10.0 mi West 6.9 mph - N/A   Partly Cloudy
6:15 PM 57.2 °F - 42.8 °F 59% 30.08 in 10.0 mi SW 5.8 mph - N/A   Scattered Clouds
6:35 PM 59.0 °F - 41.0 °F 51% 30.08 in 10.0 mi Calm Calm - N/A   Scattered Clouds
6:55 PM 57.2 °F - 41.0 °F 55% 30.08 in 10.0 mi Calm Calm - N/A   Partly Cloudy
7:15 PM 57.2 °F - 41.0 °F 55% 30.08 in 10.0 mi Calm Calm - N/A   Clear
7:35 PM 55.4 °F - 41.0 °F 58% 30.09 in 10.0 mi West 6.9 mph - N/A   Clear
7:55 PM 53.6 °F - 42.8 °F 67% 30.10 in 10.0 mi West 4.6 mph - N/A   Partly Cloudy
8:15 PM 53.6 °F - 41.0 °F 62% 30.11 in 10.0 mi West 4.6 mph - N/A   Clear
8:35 PM 51.8 °F - 39.2 °F 62% 30.12 in 10.0 mi WSW 4.6 mph - N/A   Clear
8:55 PM 51.8 °F - 41.0 °F 67% 30.13 in 10.0 mi WSW 4.6 mph - N/A   Clear
9:15 PM 51.8 °F - 42.8 °F 71% 30.14 in 10.0 mi WSW 6.9 mph - N/A   Scattered Clouds
9:35 PM 50.0 °F - 41.0 °F 71% 30.14 in 10.0 mi WSW 8.1 mph - N/A   Scattered Clouds
9:55 PM 48.2 °F - 41.0 °F 76% 30.15 in 10.0 mi SW 5.8 mph - N/A   Partly Cloudy
10:15 PM 48.2 °F - 39.2 °F 71% 30.15 in 10.0 mi Calm Calm - N/A   Partly Cloudy
10:35 PM 46.4 °F 42.4 °F 39.2 °F 76% 30.15 in 10.0 mi WSW 8.1 mph - N/A   Scattered Clouds
10:55 PM 46.4 °F 42.9 °F 39.2 °F 76% 30.15 in 10.0 mi WSW 6.9 mph - N/A   Partly Cloudy
11:15 PM 46.4 °F - 39.2 °F 76% 30.16 in 10.0 mi Calm Calm - N/A   Partly Cloudy
11:35 PM 46.4 °F 43.5 °F 39.2 °F 76% 30.17 in 10.0 mi West 5.8 mph - N/A   Clear
11:55 PM 44.6 °F 41.4 °F 39.2 °F 81% 30.17 in 10.0 mi WSW 5.8 mph - N/A   Clear